Member area
Imprimable
Wissant, 08-09/09/2018, FRA - Trail de la Côte d'Opale
List of reports > 42km - Result
Search: Page: [1]
208 Entries
 
Complains are not accepted anymore. Results are final.
PlaceNrLicenceNameAgeNATTeamTimeTkmMoy.ScrCity
1.1410T304373SOHIER Sylvain39FRACOURIR A GRAVELINES3:40:495:16 11.411
2.1407VERBRIGGHE Norbert31FRAFOULÉES LOONOISES3:48:505:27 11.012
3.1601DULIEU Anthony34FRA3:51:085:31 10.903
4.1590LIONET Victor29FRASTYORRERUNNING3:59:375:43 10.525
5.1336REGNIER Benjamin34FRA4:00:305:44 10.486
6.1024MUSELET Sebastien29FRA4:03:595:49 10.337
7.1283CRAPANZANO Alexandre35FRALES CARTOONS4:04:505:50 10.299
8.12171023685BOULANGER Thibault34FRAPHILIPPIDES TEMPLEUVOIS4:05:405:51 10.2610
9.1033BRISSEAU Lucas26FRA4:06:095:52 10.2411
10.1415PONCIN Renaud35BEL4:07:525:55 10.1714
11.1112DEGROISE Jonathan33FRAAC DENAIN4:08:145:55 10.1515
12.1111CHRISTIAENS Alexandre36BEL4:08:205:55 10.1516
13.1526BRIAND Jeremy30FRA4:11:336:00 10.0219
14.1446PICAVEZ François39FRA4:12:456:02 9.9720
15.1422DEVILLERS Yohan39FRA4:13:316:03 9.9421
16.1080GRUSON Christophe35FRA4:16:536:07 9.8123
17.1473LEMOINE Bastien29FRA4:17:556:09 9.7725
18.1070DUQUENOŸ Timothée26FRA4:20:066:12 9.6929
19.1350SPRIET Mathurin21FRA4:24:076:18 9.5432
20.1135NICOLINI Matthieu30FRABBNE4:24:176:18 9.5433
21.1607BIANCHI Benjamin36FRAGRAVITY RUNNING EXPERIENC4:24:386:19 9.5234
22.1629GRESSIER Michael32FRA4:24:476:19 9.5235
23.1326DE SMAELE Nicolas35BELSURICATES4:26:496:22 9.4437
24.1281BREVERY Jeremy28BELLET'S GAUME4:26:516:22 9.4438
25.1487MIEZE Sébastien34FRAEUROTUNNEL4:28:266:24 9.3939
26.1074SAINT-CAST Victor26FRA4:29:136:25 9.3640
27.1266MACQUET Corentin24FRA4:33:086:31 9.2344
28.1547COTTIGNIES Baptiste23FRA4:33:216:31 9.2245
29.1528LEMENU Aurélien35FRA4:33:406:31 9.2146
30.1556MOUROT Yoann35FRATEAM DU CAILLOU4:34:476:33 9.1747
31.1549COUTURIER Edouard38FRA4:34:526:33 9.1748
32.1059GUESTIN Mike34FRA4:35:426:34 9.1449
33.1519FOUBERT Giovanni33FRA4:37:176:37 9.0952
34.1516CARREIRO Tanguy34FRA4:37:346:37 9.0853
35.1447SZYMANSKI Alban35FRA4:37:446:37 9.0754
36.1351VAN DEN BOSSCHE Matthias38BEL4:38:226:38 9.0555
37.1380SKARPED Michael36SUÉ4:38:246:38 9.0556
38.12561368504ANDRÉ Vincent38FRAPLANETE RUNNING AND WALKI4:38:476:39 9.0457
39.1379POPOFF Michka32LUX4:39:376:40 9.0159
40.1313BAU Aurélien34FRA4:40:386:41 8.9860
41.1567PAKULA Guillaume26FRA4:41:286:43 8.9561
42.1000BACHIMONT Cyril31FRA4:42:206:44 8.9364
43.1049DUTHEUIL Guillaume39FRA4:42:266:44 8.9265
44.1337A88594C0190110MS2FRADELANGUE Alexandre28FRATL594:43:576:46 8.8867
45.1175A03363C0130028MS4FRANORCA Olivier39FRAISSY TRIATHLON4:44:196:47 8.8668
46.1445B08251C0190122MS3FRAZANGARI Nicolas30FRAWASQUEHAL TRIATHLON4:44:236:47 8.8670
47.15711180749AUDEBERT Enguerrand38FRAAC VEULES4:44:476:47 8.8571
48.1597HONORÉ Pierre26FRA4:46:056:49 8.8173
49.1463GAZULLA Julien31FRATRAIL BLARINGHEM4:46:556:50 8.7875
50.1213BLONDEL Benoit34FRA4:50:266:55 8.6882
51.12461893507DELASSUS Matthieu31FRASAINT VENANT ATHLETISME4:50:546:56 8.6683
52.1390DEMORA Akim36FRA4:51:046:56 8.6684
53.1608SPANNEUT Theo27FRA4:51:216:57 8.6585
54.1464DEWE Guillaume38FRA4:51:416:57 8.6487
55.1221MOREAU Sebastien35FRACOT TRITH ATHLETISME4:51:466:57 8.6488
56.1107LECLERCQ Christophe34FRA4:51:586:58 8.6389
57.1039HARY Florian24FRA4:52:226:58 8.6290
58.1523SCHEERS Cyril33FRA4:52:456:59 8.6191
59.1042SCHAEFER Eric37FRATURBO4:52:496:59 8.6193
60.1586DUFOSSEZ Baptiste27FRA4:52:566:59 8.6094
61.1420RASSON Olivier37FRA4:53:156:59 8.5995
62.1048DESSEAUX Guillaume30FRA4:53:497:00 8.5899
63.1348SPRIET Paul30FRA4:56:447:04 8.49105
64.1050BIART Quentin38FRA4:58:367:07 8.44111
65.1484ROMAIN Courtecuisse32FRA5:00:117:09 8.40113
66.1606MOUILLIERE Nicolas36FRA5:00:487:10 8.38115
67.1212CRETE Pierre36FRATEAM LIGER5:00:547:10 8.38116
68.1437BOURGAIN Jérémie39FRA5:01:027:11 8.37117
69.1136POIGNANT Joseph31FRATEAM CACAHUÈTES5:02:107:12 8.34120
70.1536DERVAUX Etienne39FRA5:02:427:13 8.33122
71.1247CHERPION Jerome31BEL5:03:157:14 8.31124
72.1425GHISKIER Jonathan38FRAFLEURBAIX J'Y COURS5:04:107:15 8.28126
73.1153HENNEBERT Bertrand38BELGROUPE GOBERT RUNNING TEA5:05:357:17 8.25129
74.1322DURIEU Antoine35FRASURICATES5:05:437:17 8.24130
75.1164REQUIN Antoine34FRAJOGGING CLUB LICQUOIS5:05:457:17 8.24131
76.1564LAPIERRE Vincent38FRA5:06:427:19 8.22134
77.153855669584RICHARD Yann39FRATHRI ATHLETISME5:06:537:19 8.21136
78.1599DEBEER Antoine28FRA5:06:577:19 8.21137
79.1149DOUMIER Quentin37BEL5:07:057:19 8.21138
80.1308FOUBERT Jason29FRA5:07:087:19 8.21139
81.1140GUINAMARD Antoine26FRA5:09:447:23 8.14145
82.1124FOULON Romain29FRA5:09:447:23 8.14146
83.1227RASSINON Samuel36FRA5:11:007:25 8.10147
84.1202DEWEVRE Simon30FRA5:11:047:25 8.10150
85.1062BOVEROUX Maxence28FRA5:11:347:26 8.09153
86.1471ROSAR Benoit38FRASEA SHEPHERD RACING5:11:397:26 8.09155
87.1120JACQMIN Thibault35FRAR&R CORROY5:13:367:28 8.04158
88.1046MABILLE Olivier39FRAVERTIGO5:13:517:29 8.03160
89.1515TOUMELIN Pierre30FRA5:13:567:29 8.03162
90.1492PAPILLON Matthieu38FRA5:14:347:30 8.01164
91.1148BOURGOIGNIE Tom37BEL5:14:417:30 8.01165
92.1232LAVIGNE Cyril37FRA5:15:037:31 8.00166
93.1071LECOMTE Damien35FRALDLV5:15:117:31 8.00167
94.1572ALAGAMA Jean Mathieu28FRAQULBUTOKÉ ACTIVE5:15:307:31 7.99168
95.1067BERTELOOT Dimitri30FRA5:15:547:32 7.98174
96.1161LOGEZ Guillaume33FRA5:16:117:32 7.97176
97.1466DESLANDRES Olivier36FRA5:17:507:35 7.93182
98.1311DUMEZ Laurent36FRA5:18:407:36 7.91183
99.11261904646LUBREZ Nicolas36FRAUS TOURCOING5:20:127:38 7.87188
100.1029FERRE SENTIS Dimitri28FRASUSPURUNTUC5:20:197:38 7.87189
101.1015MARTINOT Sebastien39FRA5:20:417:39 7.86193
102.1453HERRERO Romain31FRA5:21:117:39 7.85194
103.1391CHOJNACKI Carl38FRA5:22:187:41 7.82198
104.1361DESMONS Richard38BEL5:22:477:42 7.81199
105.1587PECKEL Laurent36FRA5:24:157:44 7.77207
106.1565DUBRULLE Julien32FRA5:24:287:44 7.77208
107.1352SEILLIER Ludovic38FRA5:24:467:44 7.76210
108.1058GUILBERT Antoine36FRA5:26:527:47 7.71217
109.1393ROUSSEAU Olivier39BEL5:27:177:48 7.70218
110.1418KLAUER Jonathan32FRATEAM SOYOUZ5:28:057:49 7.68219
111.1278LUGAND Alexis29FRA5:29:097:51 7.66225
112.1147DECLEVE Philippe36BEL5:30:067:52 7.63231
113.12372023597CARLIER Romain25FRAUNION SPORTIVE VALENCIENN5:30:187:52 7.63232
114.1032LEBEURRE Nicolas34FRA5:30:417:53 7.62234
115.1472ENGRAND Romain29FRA5:31:057:53 7.61235
116.1531MOUTON Geoffroy38FRATEAM ST YORRE5:32:017:55 7.59238
117.1434THEVENET Olivier36FRA5:32:067:55 7.59239
118.1450DE SLOOVERE Anthime25FRA5:33:187:57 7.56242
119.1331LEMAHIEU Maxime34FRA5:34:517:59 7.53245
120.1204CNOSSEN Johan31FRA5:35:548:00 7.50248
121.1595CRÉPIN Benoît36FRA5:38:178:04 7.45252
122.14002023455CONIL Mathieu32FRADREAMRUN5:38:328:04 7.44253
123.1211LE POLAIN Christophe37BEL5:40:228:07 7.40266
124.1342DUPONT Olivier35BELSCCOACHING5:41:028:08 7.39268
125.1360VANDOOREN Paul38FRA5:41:188:08 7.38269
126.1503BARAN Kevin37FRA5:42:108:09 7.36270
127.1388LEROUGE Eric36FRA5:42:148:09 7.36271
128.1521HUGUET Gregory30FRA5:42:208:10 7.36272
129.1426KARASIAK Fabien26FRA5:42:328:10 7.36276
130.1103WARNANT Alexandre36BEL5:42:358:10 7.36277
131.1589DEPOSE Emilien25FRA5:45:038:13 7.30284
132.1338VIGNERON Adrien28FRA5:45:038:13 7.30285
133.1475FLOERS Vincent38FRAVINCENT5:45:178:14 7.30286
134.1297PARMENTIER Florian31FRAAS VERBERIE5:45:388:14 7.29289
135.1253GRIERE Baptiste37FRARUNNINGHEM5:46:578:16 7.26293
136.1294WERY Sébastien31BELTRIAHTLIÈGE5:47:338:17 7.25296
137.1166AUBERT Jean-Baptiste30FRA5:47:438:17 7.25299
138.1243LIENARD Jeremy34FRA5:47:488:17 7.25300
139.1591LABIS Matthieu31FRA5:47:498:17 7.25301
140.1387KARASIAK Cyril35FRA5:48:318:18 7.23304
141.1550MANCEAU Pierre35FRA5:49:028:19 7.22309
142.1610VOLPI Gregory37FRA5:49:038:19 7.22310
143.1320JONNIAUX Gery32BEL5:49:138:19 7.22311
144.1491RADENNE Quentin29FRA5:49:148:19 7.22312
145.1392LORTHOIS Quentin28FRA5:49:458:20 7.21315
146.1578DESRUELLES François-Xavier36FRA5:51:288:23 7.17317
147.1218MAQUIGNON Antoine31FRA5:53:058:25 7.14321
148.1203CNOSSEN Peter31FRA5:53:438:26 7.12323
149.1576SARRAZIN Alexandre27FRA5:53:488:26 7.12326
150.1490CLAIR Jean33FRA5:56:358:30 7.07333
151.1051DEMAN Maxime31BELTEMPLEUVE5:57:288:31 7.05334
152.1303MINET Francois38FRARUNNING TEMPLEUVE5:57:298:31 7.05335
153.1274BURY Gaylord26BELRUNNING CLUB TEMPLEUVE5:57:298:31 7.05336
154.1508DAVIS Arthur26FRA5:57:538:32 7.04337
155.1187A74385C0130118MS3FRADUPREZ Julien32FRATRIATHLETE ATTITUDE VINCE5:58:048:32 7.04338
156.1291SIMON Steve38BEL5:58:478:33 7.02341
157.1044MARICHAL Benjamin32FRA5:59:158:34 7.01342
157.1078NOYERE Romain32FRA5:59:158:34 7.01342
159.1201CORDIER Quentin36FRASCCOACHING5:59:508:35 7.00347
160.1583ANSEL Nicolas37FRA6:00:378:36 6.99353
161.1323EL BAAMRANI Karim35BELSURICATES6:00:508:36 6.98354
162.1141CALVIN Jeremy35FRARUNNING &BIERES6:01:038:36 6.98355
163.1284XHIGNESSE Kevin36BEL6:01:168:37 6.98356
164.1006COUSIN Alexandre39FRACAC CLUB ATHLÉTIQUE DE LA6:01:528:37 6.96358
165.1316FLAMENT Nicolas38FRA6:03:408:40 6.93361
166.1064VANDENBROUCKE Guillaume32FRA6:05:338:43 6.89368
167.11001942647ROUSIER Julien33FRAOSM LOMME ATHLETISME6:05:348:43 6.89369
168.1282CHRISTEN Yoan36FRA6:05:388:43 6.89371
169.1334VARLET Arnaud29BEL6:09:128:48 6.83377
170.1236FROISSART Teddy39FRA6:09:468:49 6.82378
171.1273BERTRAND Sylvain37FRA6:09:578:49 6.81379
172.11961745208SITARZ Guillaume33FRALES MUVRINS6:12:218:52 6.77381
173.1417PICQUET Nicolas27FRA6:13:008:53 6.76384
174.1416MAQUIGNON Sacha19FRA6:13:018:53 6.76385
175.1428MERCIER Vincent35FRAPÉTOTES6:13:088:54 6.75387
176.1385GARNIER David39FRA6:13:318:54 6.75390
177.1017HOULIEZ Mathieu34FRAVALEO6:22:059:06 6.60408
178.1548NOUCHI Gerard34FRA6:24:129:09 6.56414
179.1086DELMOTTE Rémy37FRA6:29:039:16 6.48421
180.1339FOULON Rémi32FRA6:29:349:17 6.47424
181.1036CHRÉTIEN Fabien33FRA6:29:389:17 6.47425
182.1087ABOGHET Justin36FRA6:32:079:21 6.43428
183.1286LEROUX Geoffrey38FRA6:32:519:22 6.41429
184.1585VEREZ Benoit36FRA6:35:549:26 6.37433
185.1057MEYTS Thierry38FRARUNNERS & BIKERS CORROY-L6:38:159:29 6.33437
186.1414BOUDIN Thomas29FRATEAM TRAIL GRAVELINES6:42:539:36 6.25442
187.1088AVOT Victor26FRA6:43:049:36 6.25443
188.1089AVOT Martin28FRA6:43:059:36 6.25444
189.1506VANWAELSCAPPEL Quentin29FRA6:43:389:37 6.24445
190.1277LUGAND Julien35FRA6:43:519:37 6.24446
191.1022DIÉVAL Edouard35FRA6:48:039:43 6.18447
192.1598BARROIS Vincent37FRA6:48:369:44 6.17449
193.1092GRUSLIN David34BEL6:54:149:52 6.08455
194.1427LEPLEUX Christophe36FRA7:00:5810:02 5.99462
195.1096RIDOUX Nicolas33FRALES LOUPS BLANCS7:06:4310:10 5.91467
196.1470VITOUX Christopher25FRA7:13:4310:20 5.81469
197.1019VERNALDE Thomas36FRA7:17:1410:25 5.76472
198.1011BIGAND Julien35FRA7:17:1510:25 5.76473
DNF10282004302BEAUVAIS Theo28FRACLUB SPORTIF DE L'OREAL
DNF1579DAYE Stéphane César29BELLES NOIX DE COCO
DNF1544A98896C0190124MS2FRADELCOUR Thomas26FRATRI MAUBEUGE
DNF1045FATREZ Damien38FRA9@THETREE
DNF1419GOEURY Charles Henri32FRA
DNF1023HENRIQUET Fabien34FRA
DNF1327LASSUS Quentin31FRA
DNF1365LEFEBVRE Marc-Antoine26FRA
DNF1298NOEL Clement32FRA
DNF1501WATTIEZ Aurelien33FRA
DNF: did not finish; DSQ: disqualified; Speed in km/h
Page: [1]